Home   Weather   Halden   Past weeks

Flag for Norway Past Weather in Halden, Norway — Yesterday and Last 2 Weeks

Now
37 °F

Chilly.


Feels Like: 37 °F
Forecast: 36 / 39 °F
Wind: 2 mph from Northeast

Location: Stromtangen Fyr

Current Time: Jan 21, 2017 at 2:32:47 pm

Latest Report: Jan 21, 2017 at 1:00 pm


Visibility: N/A

Pressure: 30.38 "Hg

Humidity: 96%

Dew Point: 36 °F

Location of HaldenLocation

Past Weather in Halden — Graph

°F

Halden Temperature Yesterday

Maximum temperature yesterday: 46 °F (at 5:00 am)
Minimum temperature yesterday: 40 °F (at 11:00 pm)
Average temperature yesterday: 42 °F

High & Low Weather Summary for the Past Weeks

 TemperatureHumidityPressure
High46 °F (Jan 20, 5:00 am)100% (Jan 7, 10:00 am)30.48 "Hg (Jan 7, 10:00 am)
Low23 °F (Jan 16, 5:00 am)57% (Jan 16, 12:00 pm)28.50 "Hg (Jan 11, 3:00 pm)
Average36 °F85%29.89 "Hg
* Reported Jan 6 1:00 pm — Jan 21 1:00 pm, Halden, Weather by CustomWeather, © 2017

Note: Actual official high and low records may vary slightly from our data, if they occured in-between our weather recording intervals... More about our weather records

Advertising

Halden Weather History for the Previous 24 Hours

Scroll right to see more
 ConditionsComfort  
Time TempWeatherWind HumidityBarometerVisibility
1:00 pm
Sat, Jan 21
37 °FChilly.2 mph96%30.38 "HgN/A
12:00 pm34 °FChilly.3 mph98%30.37 "HgN/A
11:00 am33 °FChilly.3 mph100%30.37 "HgN/A
10:00 am33 °FChilly.5 mph100%30.37 "HgN/A
9:00 am32 °FChilly.5 mph99%30.36 "HgN/A
8:00 am32 °FChilly.3 mph99%30.35 "HgN/A
7:00 am32 °FChilly.3 mph99%30.34 "HgN/A
6:00 am33 °FChilly.3 mph100%30.34 "HgN/A
5:00 am33 °FChilly.3 mph99%30.33 "HgN/A
4:00 am33 °FChilly.3 mph98%30.34 "HgN/A
3:00 am34 °FChilly.2 mph97%30.33 "HgN/A
2:00 am34 °FChilly.2 mph95%30.33 "HgN/A
1:00 am35 °FChilly.2 mph91%30.34 "HgN/A
12:00 am36 °FChilly.2 mph93%30.34 "HgN/A
11:00 pm
Fri, Jan 20
40 °FChilly.1 mph90%30.33 "HgN/A
10:00 pm40 °FQuite cool.1 mph84%30.32 "HgN/A
9:00 pm40 °FQuite cool.6 mph88%30.30 "HgN/A
8:00 pm42 °FQuite cool.3 mph83%30.29 "HgN/A
7:00 pm45 °FQuite cool.3 mph75%30.28 "HgN/A
6:00 pm42 °FQuite cool.5 mph83%30.27 "HgN/A
5:00 pm42 °FQuite cool.3 mph83%30.26 "HgN/A
4:00 pm42 °FQuite cool.9 mph83%30.24 "HgN/A
3:00 pm42 °FQuite cool.9 mph84%30.24 "HgN/A
2:00 pm42 °FQuite cool.10 mph84%30.24 "HgN/A
Weather by CustomWeather, © 2017

See weather overviewHow to use our weather pages